TimeCDT,TemperatureF,Dew PointF,Humidity,Sea Level PressureIn,VisibilityMPH,Wind Direction,Wind SpeedMPH,Gust SpeedMPH,PrecipitationIn,Events,Conditions,WindDirDegrees,DateUTC
12:15 AM,30.7,22.6,72,30.26,10.0,North,16.1,-,N/A,,Clear,10,2014-03-22 05:15:00
12:35 AM,30.4,22.1,71,30.27,10.0,North,13.8,-,N/A,,Clear,10,2014-03-22 05:35:00
12:55 AM,29.1,21.7,74,30.27,10.0,North,10.4,-,N/A,,Clear,10,2014-03-22 05:55:00
1:15 AM,28.8,21.7,75,30.28,10.0,North,8.1,-,N/A,,Clear,360,2014-03-22 06:15:00
1:35 AM,27.5,21.2,77,30.29,10.0,North,6.9,-,N/A,,Clear,350,2014-03-22 06:35:00
1:55 AM,27.1,21.0,78,30.30,10.0,NNW,6.9,-,N/A,,Clear,340,2014-03-22 06:55:00
2:15 AM,24.1,19.8,84,30.31,10.0,NW,4.6,-,N/A,,Mostly Cloudy,320,2014-03-22 07:15:00
2:35 AM,26.4,21.6,82,30.31,10.0,NNW,5.8,-,N/A,,Overcast,340,2014-03-22 07:35:00
2:55 AM,27.7,21.9,79,30.30,10.0,North,11.5,-,N/A,,Mostly Cloudy,360,2014-03-22 07:55:00
3:15 AM,27.7,22.1,80,30.30,10.0,North,10.4,-,N/A,,Mostly Cloudy,360,2014-03-22 08:15:00
3:35 AM,28.2,21.9,77,30.30,10.0,North,8.1,-,N/A,,Mostly Cloudy,360,2014-03-22 08:35:00
3:55 AM,28.4,21.7,76,30.30,10.0,North,11.5,17.3,N/A,,Mostly Cloudy,10,2014-03-22 08:55:00
4:15 AM,28.4,20.8,73,30.30,10.0,North,15.0,-,N/A,,Overcast,360,2014-03-22 09:15:00
4:35 AM,28.4,20.5,72,30.29,10.0,NNE,18.4,-,N/A,,Overcast,30,2014-03-22 09:35:00
4:55 AM,27.7,19.8,72,30.29,10.0,NNE,18.4,-,N/A,,Overcast,20,2014-03-22 09:55:00
5:15 AM,27.3,18.7,70,30.31,10.0,North,18.4,25.3,N/A,,Mostly Cloudy,360,2014-03-22 10:15:00
5:35 AM,26.8,17.4,68,30.31,10.0,North,16.1,23.0,N/A,,Scattered Clouds,360,2014-03-22 10:35:00
5:55 AM,26.4,17.4,69,30.31,10.0,North,13.8,-,N/A,,Clear,10,2014-03-22 10:55:00
6:15 AM,26.6,17.6,69,30.32,10.0,North,12.7,-,N/A,,Mostly Cloudy,10,2014-03-22 11:15:00
6:35 AM,25.3,15.6,67,30.34,10.0,North,15.0,-,N/A,,Overcast,360,2014-03-22 11:35:00
6:55 AM,23.9,13.8,65,30.34,10.0,North,13.8,-,N/A,,Mostly Cloudy,10,2014-03-22 11:55:00
7:15 AM,23.0,13.8,68,30.36,10.0,North,12.7,-,N/A,,Overcast,360,2014-03-22 12:15:00
7:35 AM,22.6,13.3,67,30.37,10.0,North,19.6,-,N/A,,Overcast,10,2014-03-22 12:35:00
7:55 AM,22.1,12.2,66,30.37,10.0,North,18.4,24.2,N/A,,Overcast,10,2014-03-22 12:55:00
8:15 AM,21.7,13.6,71,30.37,10.0,North,16.1,-,N/A,,Overcast,10,2014-03-22 13:15:00
8:35 AM,22.1,13.6,70,30.37,10.0,NNE,18.4,-,N/A,,Overcast,20,2014-03-22 13:35:00
8:55 AM,22.1,12.4,66,30.38,10.0,North,19.6,-,N/A,,Overcast,10,2014-03-22 13:55:00
9:15 AM,22.1,12.4,66,30.39,10.0,North,18.4,-,N/A,,Overcast,10,2014-03-22 14:15:00
9:35 AM,22.1,11.8,65,30.39,10.0,North,18.4,-,N/A,,Overcast,10,2014-03-22 14:35:00
9:55 AM,22.8,11.5,62,30.40,10.0,North,18.4,24.2,N/A,,Overcast,10,2014-03-22 14:55:00
10:15 AM,24.1,12.4,61,30.41,10.0,North,15.0,-,N/A,,Scattered Clouds,10,2014-03-22 15:15:00
10:35 AM,24.4,11.3,57,30.41,10.0,North,16.1,21.9,N/A,,Mostly Cloudy,10,2014-03-22 15:35:00
10:55 AM,26.1,11.5,54,30.42,10.0,North,16.1,25.3,N/A,,Mostly Cloudy,360,2014-03-22 15:55:00
11:15 AM,26.4,9.7,49,30.41,10.0,North,12.7,20.7,N/A,,Overcast,10,2014-03-22 16:15:00
11:35 AM,28.0,8.8,44,30.41,10.0,North,17.3,23.0,N/A,,Overcast,10,2014-03-22 16:35:00
11:55 AM,28.0,7.9,43,30.40,10.0,North,13.8,19.6,N/A,,Overcast,10,2014-03-22 16:55:00
12:15 PM,29.1,7.5,40,30.40,10.0,NNE,16.1,21.9,N/A,,Overcast,20,2014-03-22 17:15:00
12:55 PM,30.6,5.4,34,30.39,10.0,North,18.4,25.3,N/A,,Overcast,10,2014-03-22 17:55:00
1:15 PM,29.8,6.1,37,30.39,10.0,NNE,20.7,25.3,N/A,,Overcast,30,2014-03-22 18:15:00
1:35 PM,29.7,5.7,36,30.39,10.0,North,18.4,24.2,N/A,,Overcast,10,2014-03-22 18:35:00
1:55 PM,29.8,5.2,35,30.39,10.0,NNE,18.4,23.0,N/A,,Overcast,20,2014-03-22 18:55:00
2:15 PM,29.3,5.5,37,30.39,10.0,North,19.6,24.2,N/A,,Overcast,10,2014-03-22 19:15:00
2:35 PM,29.8,6.1,37,30.39,10.0,NNE,20.7,-,N/A,,Overcast,30,2014-03-22 19:35:00
2:55 PM,29.7,7.2,39,30.39,10.0,NNE,17.3,21.9,N/A,,Overcast,20,2014-03-22 19:55:00
3:15 PM,28.0,12.9,53,30.40,7.0,NNE,15.0,23.0,N/A,,Overcast,20,2014-03-22 20:15:00
3:35 PM,28.2,14.0,55,30.41,5.0,North,17.3,23.0,N/A,,Haze,360,2014-03-22 20:35:00
3:55 PM,27.9,14.9,58,30.40,5.0,NNE,18.4,-,N/A,,Haze,30,2014-03-22 20:55:00
4:15 PM,28.2,14.9,57,30.40,7.0,NNE,16.1,23.0,N/A,,Overcast,30,2014-03-22 21:15:00
4:35 PM,27.3,15.4,61,30.41,5.0,North,15.0,-,N/A,,Haze,10,2014-03-22 21:35:00
4:55 PM,26.6,16.9,67,30.41,5.0,NNE,13.8,-,N/A,,Haze,20,2014-03-22 21:55:00
5:15 PM,26.6,17.6,69,30.41,3.0,North,17.3,-,N/A,Snow,Light Snow,10,2014-03-22 22:15:00
5:35 PM,25.3,19.9,80,30.41,1.5,North,17.3,-,N/A,Snow,Light Snow,10,2014-03-22 22:35:00
5:55 PM,25.2,19.4,79,30.42,5.0,North,15.0,-,N/A,,Haze,10,2014-03-22 22:55:00
6:15 PM,25.0,20.1,82,30.42,1.8,North,15.0,-,N/A,Snow,Light Snow,10,2014-03-22 23:15:00
6:35 PM,24.8,19.8,81,30.42,2.5,NNE,12.7,-,N/A,Snow,Light Snow,20,2014-03-22 23:35:00
6:55 PM,24.6,20.1,83,30.42,2.5,NNE,10.4,-,N/A,Snow,Light Snow,20,2014-03-22 23:55:00
7:15 PM,24.6,19.6,81,30.42,7.0,North,10.4,-,N/A,,Overcast,10,2014-03-23 00:15:00
7:35 PM,24.6,18.5,78,30.42,10.0,North,11.5,-,N/A,,Overcast,10,2014-03-23 00:35:00
7:55 PM,25.2,15.3,66,30.43,10.0,North,11.5,-,N/A,,Overcast,10,2014-03-23 00:55:00
8:15 PM,24.4,14.7,67,30.44,10.0,North,15.0,-,N/A,,Overcast,10,2014-03-23 01:15:00
8:35 PM,23.9,15.4,70,30.46,10.0,North,15.0,-,N/A,,Overcast,360,2014-03-23 01:35:00
8:55 PM,23.7,15.6,71,30.46,10.0,North,11.5,-,N/A,,Overcast,360,2014-03-23 01:55:00
9:15 PM,23.9,15.4,70,30.47,10.0,North,6.9,-,N/A,,Overcast,360,2014-03-23 02:15:00
9:35 PM,23.9,16.2,72,30.49,10.0,NNW,9.2,-,N/A,,Overcast,340,2014-03-23 02:35:00
9:55 PM,23.9,16.9,75,30.48,10.0,NNW,9.2,-,N/A,,Overcast,330,2014-03-23 02:55:00
10:15 PM,23.5,17.2,77,30.49,10.0,NNW,6.9,-,N/A,,Overcast,330,2014-03-23 03:15:00
10:35 PM,23.5,16.9,76,30.49,10.0,NNW,6.9,-,N/A,,Overcast,330,2014-03-23 03:35:00
10:55 PM,22.3,15.8,76,30.50,10.0,NW,6.9,-,N/A,,Mostly Cloudy,320,2014-03-23 03:55:00
11:15 PM,20.8,15.4,80,30.51,10.0,NW,5.8,-,N/A,,Scattered Clouds,310,2014-03-23 04:15:00
11:35 PM,19.2,14.4,81,30.51,10.0,NW,6.9,-,N/A,,Clear,310,2014-03-23 04:35:00
11:55 PM,17.4,13.3,84,30.51,10.0,NW,6.9,-,N/A,,Clear,310,2014-03-23 04:55:00